FW8288 Weather Reports


Display with metric or nautical units.
time (UTC)temp
F
wind
direction
speed
MPH
gust
MPH
rain 1hr
in
rain 24hr
in
rain mn
in
humidity
%
barometer
mb
20260504044605 63 0 0.0 0.0 0.00 0.00 0.00 68 1019.6
20260504043104 64 0 0.0 0.0 0.00 0.00 0.00 66 1019.7
20260504041556 65 0 0.0 0.0 0.00 0.00 0.00 64 1019.7
20260504040058 65 0 0.0 1.0 0.00 0.00 0.00 64 1019.7
20260504034614 66 0 0.0 0.0 0.00 0.00 0.00 62 1019.6
20260504033056 67 0 0.0 2.0 0.00 0.00 0.00 60 1019.7
20260504031559 67 0 0.0 2.0 0.00 0.00 0.00 59 1019.5
20260504030058 68 0 0.0 3.0 0.00 0.00 0.00 58 1019.4
20260504024559 68 165 0.0 4.0 0.00 0.00 0.00 57 1019.3
20260504023057 68 0 0.0 2.0 0.00 0.00 0.00 56 1019.3
20260504021557 69 0 0.0 4.0 0.00 0.00 0.00 54 1019.3
20260504020059 70 0 0.0 3.0 0.00 0.00 0.00 53 1019.1
20260504014618 71 165 1.0 5.0 0.00 0.00 0.00 52 1019.0
20260504013104 71 165 0.0 3.0 0.00 0.00 0.00 50 1019.0
20260504011603 72 0 1.0 4.0 0.00 0.00 0.00 48 1019.0
20260504010100 73 0 0.0 3.0 0.00 0.00 0.00 47 1018.8
20260504004559 73 165 0.0 4.0 0.00 0.00 0.00 47 1018.8
20260504003101 74 165 1.0 7.0 0.00 0.00 0.00 45 1019.0
20260504001616 75 0 2.0 6.0 0.00 0.00 0.00 44 1018.8
20260504000057 76 165 0.0 4.0 0.00 0.00 0.00 43 1018.8
20260503234600 77 165 2.0 6.0 0.00 0.00 0.00 42 1018.9
20260503233057 78 165 1.0 4.0 0.00 0.00 0.00 39 1018.8
20260503231559 79 165 0.0 5.0 0.00 0.00 0.00 34 1019.1
20260503230100 79 165 1.0 5.0 0.00 0.00 0.00 35 1019.1
20260503224559 80 165 1.0 4.0 0.00 0.00 0.00 32 1019.2
20260503223059 80 165 1.0 4.0 0.00 0.00 0.00 32 1019.4
20260503221558 80 165 2.0 6.0 0.00 0.00 0.00 34 1019.6
20260503220104 80 165 2.0 5.0 0.00 0.00 0.00 33 1019.6
20260503214559 81 165 0.0 5.0 0.00 0.00 0.00 35 1019.7
20260503213111 82 165 0.0 4.0 0.00 0.00 0.00 32 1019.9
20260503211559 82 165 1.0 3.0 0.00 0.00 0.00 34 1020.2
20260503210104 82 165 2.0 4.0 0.00 0.00 0.00 32 1020.3
20260503204557 82 165 1.0 5.0 0.00 0.00 0.00 34 1020.5
20260503203104 82 165 2.0 5.0 0.00 0.00 0.00 31 1020.7
20260503201557 82 165 1.0 5.0 0.00 0.00 0.00 33 1020.9
20260503194600 81 165 1.0 7.0 0.00 0.00 0.00 36 1021.4
20260503193110 81 165 1.0 8.0 0.00 0.00 0.00 33 1021.6
20260503191605 81 165 1.0 4.0 0.00 0.00 0.00 36 1021.8
20260503190058 80 165 1.0 6.0 0.00 0.00 0.00 36 1022.1
20260503184609 80 165 1.0 7.0 0.00 0.00 0.00 36 1022.3
20260503183110 79 165 1.0 6.0 0.00 0.00 0.00 39 1022.5
20260503181609 79 165 3.0 7.0 0.00 0.00 0.00 37 1022.7
20260503180057 79 0 1.0 7.0 0.00 0.00 0.00 37 1022.9
20260503174557 79 165 0.0 3.0 0.00 0.00 0.00 37 1023.1
20260503173102 79 165 2.0 7.0 0.00 0.00 0.00 38 1023.4
20260503171556 77 165 2.0 5.0 0.00 0.00 0.00 40 1023.7
20260503090105 57 0 0.0 0.0 0.00 0.00 0.00 92 1021.8
20260503081629 57 0 0.0 0.0 0.00 0.00 0.00 91 1021.9
20260503080117 57 0 0.0 0.0 0.00 0.00 0.00 91 1021.9
20260503071559 58 0 0.0 0.0 0.00 0.00 0.00 90 1022.0
20260503070107 58 0 0.0 0.0 0.00 0.00 0.00 90 1022.1